Location: Санкт-Петербург
(59.9343°N, 30.3351°E)
Time: 03:16:40
(UTC+03:00)

ISS - Visible Passes

Search period start: 05 July 2020 00:00
Search period end: 15 July 2020 00:00
Orbit: 417 x 421 km, 51.6° (Epoch: 05 July)

Date Brightness Start Highest point End Pass type
(mag) Time Alt. Az. Time Alt. Az. Time Alt. Az.
09 Jul -1.8 02:05:41 10° SSW 02:07:32 14° SSE 02:09:23 10° SE visible
10 Jul -1.6 01:19:06 10° S 01:20:09 12° SSE 01:21:24 10° SE visible
11 Jul -2.2 02:06:14 10° SW 02:08:38 18° SSE 02:11:03 10° ESE visible
12 Jul -2.1 01:19:01 10° SSW 01:21:12 16° SSE 01:23:24 10° ESE visible
13 Jul -1.9 00:31:55 10° SSW 00:33:46 14° SSE 00:35:38 10° SE visible
13 Jul -2.4 02:07:12 10° SW 02:09:45 20° S 02:12:19 10° SE visible
13 Jul -1.8 23:45:08 10° S 23:46:21 12° SSE 23:47:35 10° SE visible
14 Jul -2.4 01:19:46 10° SW 01:22:16 20° S 01:24:47 10° SE visible
